Time,TemperatureF,DewpointF,PressureIn,WindDirection,WindDirectionDegrees,WindSpeedMPH,WindSpeedGustMPH,Humidity,HourlyPrecipIn,Conditions,Clouds,dailyrainin,SoftwareType,DateUTC
2013-07-09 00:10:00,77.3,73.0,30.11,SSE,159,0.0,0.0,85,0.00,,,0.00,weatherlink.com 1.10,2013-07-09 05:10:00,
2013-07-09 00:25:00,77.2,72.0,30.11,SSE,159,0.0,0.0,84,0.00,,,0.00,weatherlink.com 1.10,2013-07-09 05:25:00,
2013-07-09 00:40:00,77.9,73.0,30.11,SSE,160,0.0,0.0,84,0.00,,,0.00,weatherlink.com 1.10,2013-07-09 05:40:00,
2013-07-09 00:55:00,78.0,73.0,30.10,SSE,160,0.0,0.0,85,0.00,,,0.00,weatherlink.com 1.10,2013-07-09 05:55:00,
2013-07-09 01:10:00,78.1,73.0,30.10,SSE,147,0.0,0.0,85,0.00,,,0.00,weatherlink.com 1.10,2013-07-09 06:10:00,
2013-07-09 01:25:00,78.1,73.0,30.11,SE,146,0.0,0.0,85,0.00,,,0.00,weatherlink.com 1.10,2013-07-09 06:25:00,
2013-07-09 01:40:00,77.9,73.0,30.11,SE,146,0.0,0.0,85,0.00,,,0.00,weatherlink.com 1.10,2013-07-09 06:40:00,
2013-07-09 01:55:00,77.7,73.0,30.11,SSE,147,0.0,0.0,85,0.00,,,0.00,weatherlink.com 1.10,2013-07-09 06:55:00,
2013-07-09 02:10:00,77.4,73.0,30.11,SSE,147,0.0,0.0,85,0.00,,,0.00,weatherlink.com 1.10,2013-07-09 07:10:00,
2013-07-09 02:25:00,77.3,73.0,30.12,SSE,147,0.0,0.0,85,0.00,,,0.00,weatherlink.com 1.10,2013-07-09 07:25:00,
2013-07-09 02:40:00,77.2,72.0,30.12,SSE,147,0.0,0.0,85,0.00,,,0.00,weatherlink.com 1.10,2013-07-09 07:40:00,
2013-07-09 02:55:00,76.9,72.0,30.11,SSE,147,0.0,0.0,85,0.00,,,0.00,weatherlink.com 1.10,2013-07-09 07:55:00,
2013-07-09 03:10:00,76.6,72.0,30.11,SSE,147,0.0,0.0,84,0.00,,,0.00,weatherlink.com 1.10,2013-07-09 08:10:00,
2013-07-09 03:25:00,76.6,72.0,30.11,SE,146,0.0,0.0,84,0.00,,,0.00,weatherlink.com 1.10,2013-07-09 08:25:00,
2013-07-09 03:40:00,76.6,72.0,30.11,SE,146,0.0,0.0,84,0.00,,,0.00,weatherlink.com 1.10,2013-07-09 08:40:00,
2013-07-09 03:55:00,76.3,72.0,30.11,SE,146,0.0,0.0,85,0.00,,,0.00,weatherlink.com 1.10,2013-07-09 08:55:00,
2013-07-09 04:10:00,75.7,71.0,30.11,SE,146,0.0,0.0,84,0.00,,,0.00,weatherlink.com 1.10,2013-07-09 09:10:00,
2013-07-09 04:25:00,75.5,70.0,30.11,SSE,147,0.0,0.0,84,0.00,,,0.00,weatherlink.com 1.10,2013-07-09 09:25:00,
2013-07-09 04:40:00,75.3,70.0,30.11,SE,146,0.0,0.0,83,0.00,,,0.00,weatherlink.com 1.10,2013-07-09 09:40:00,
2013-07-09 04:55:00,75.0,70.0,30.11,SSE,147,0.0,0.0,83,0.00,,,0.00,weatherlink.com 1.10,2013-07-09 09:55:00,
2013-07-09 05:10:00,75.0,69.0,30.11,SSE,147,0.0,0.0,82,0.00,,,0.00,weatherlink.com 1.10,2013-07-09 10:10:00,
2013-07-09 05:25:00,74.6,69.0,30.12,SSE,147,0.0,1.0,82,0.00,,,0.00,weatherlink.com 1.10,2013-07-09 10:25:00,
2013-07-09 05:40:00,74.5,69.0,30.12,SSE,147,0.0,0.0,82,0.00,,,0.00,weatherlink.com 1.10,2013-07-09 10:40:00,
2013-07-09 05:55:00,74.3,68.0,30.12,SSE,147,0.0,0.0,81,0.00,,,0.00,weatherlink.com 1.10,2013-07-09 10:55:00,
2013-07-09 06:10:00,74.3,68.0,30.12,SSE,147,0.0,0.0,81,0.00,,,0.00,weatherlink.com 1.10,2013-07-09 11:10:00,
2013-07-09 06:25:00,74.0,68.0,30.12,SSE,147,0.0,0.0,80,0.00,,,0.00,weatherlink.com 1.10,2013-07-09 11:25:00,
2013-07-09 06:40:00,73.8,67.0,30.13,SSE,147,0.0,0.0,80,0.00,,,0.00,weatherlink.com 1.10,2013-07-09 11:40:00,
2013-07-09 06:55:00,73.9,67.0,30.14,SSE,147,0.0,0.0,80,0.00,,,0.00,weatherlink.com 1.10,2013-07-09 11:55:00,
2013-07-09 07:10:00,74.1,67.0,30.14,SSE,147,0.0,0.0,79,0.00,,,0.00,weatherlink.com 1.10,2013-07-09 12:10:00,
2013-07-09 07:25:00,74.3,67.0,30.14,SE,146,0.0,0.0,78,0.00,,,0.00,weatherlink.com 1.10,2013-07-09 12:25:00,
2013-07-09 07:40:00,74.7,67.0,30.14,SE,146,0.0,0.0,78,0.00,,,0.00,weatherlink.com 1.10,2013-07-09 12:40:00,
2013-07-09 07:55:00,75.4,68.0,30.15,SE,146,0.0,0.0,77,0.00,,,0.00,weatherlink.com 1.10,2013-07-09 12:55:00,
2013-07-09 08:10:00,76.8,69.0,30.16,East,97,0.0,0.0,76,0.00,,,0.00,weatherlink.com 1.10,2013-07-09 13:10:00,
2013-07-09 08:25:00,77.8,70.0,30.16,East,97,0.0,0.0,76,0.00,,,0.00,weatherlink.com 1.10,2013-07-09 13:25:00,
2013-07-09 08:41:00,78.7,70.0,30.16,East,97,0.0,0.0,75,0.00,,,0.00,weatherlink.com 1.10,2013-07-09 13:41:00,
2013-07-09 08:56:00,79.5,71.0,30.16,East,97,0.0,0.0,76,0.00,,,0.00,weatherlink.com 1.10,2013-07-09 13:56:00,
2013-07-09 09:11:00,80.0,74.0,30.16,East,82,0.0,0.0,81,0.00,,,0.00,weatherlink.com 1.10,2013-07-09 14:11:00,
2013-07-09 09:26:00,80.7,75.0,30.16,SSE,149,0.0,0.0,82,0.00,,,0.00,weatherlink.com 1.10,2013-07-09 14:26:00,
2013-07-09 09:41:00,82.5,77.0,30.16,NW,317,0.0,0.0,82,0.00,,,0.00,weatherlink.com 1.10,2013-07-09 14:41:00,
2013-07-09 09:56:00,83.8,77.0,30.16,West,275,0.0,0.0,80,0.00,,,0.00,weatherlink.com 1.10,2013-07-09 14:56:00,
2013-07-09 10:11:00,84.7,77.0,30.16,South,176,0.0,0.0,77,0.00,,,0.00,weatherlink.com 1.10,2013-07-09 15:11:00,
2013-07-09 10:26:00,86.1,77.0,30.16,SSE,167,0.0,0.0,75,0.00,,,0.00,weatherlink.com 1.10,2013-07-09 15:26:00,
2013-07-09 10:41:00,86.7,78.0,30.16,SE,132,0.0,0.0,74,0.00,,,0.00,weatherlink.com 1.10,2013-07-09 15:41:00,
2013-07-09 10:56:00,86.4,77.0,30.16,WNW,287,0.0,0.0,73,0.00,,,0.00,weatherlink.com 1.10,2013-07-09 15:56:00,
2013-07-09 11:11:00,87.9,76.0,30.15,South,188,0.0,0.0,68,0.00,,,0.00,weatherlink.com 1.10,2013-07-09 16:11:00,
2013-07-09 11:26:00,87.7,76.0,30.15,ESE,113,0.0,0.0,68,0.00,,,0.00,weatherlink.com 1.10,2013-07-09 16:26:00,
2013-07-09 11:41:00,88.6,77.0,30.15,ESE,123,0.0,0.0,68,0.00,,,0.00,weatherlink.com 1.10,2013-07-09 16:41:00,
2013-07-09 11:56:00,89.9,76.0,30.15,ESE,109,0.0,0.0,64,0.00,,,0.00,weatherlink.com 1.10,2013-07-09 16:56:00,
2013-07-09 12:11:00,88.8,76.0,30.14,SW,223,0.0,0.0,67,0.00,,,0.00,weatherlink.com 1.10,2013-07-09 17:11:00,
2013-07-09 12:26:00,89.5,76.0,30.14,SE,140,0.0,0.0,64,0.00,,,0.00,weatherlink.com 1.10,2013-07-09 17:26:00,
2013-07-09 12:41:00,91.6,75.0,30.13,SSE,153,0.0,0.0,59,0.00,,,0.00,weatherlink.com 1.10,2013-07-09 17:41:00,
2013-07-09 12:56:00,90.3,75.0,30.13,ENE,72,0.0,0.0,60,0.00,,,0.00,weatherlink.com 1.10,2013-07-09 17:56:00,
2013-07-09 13:11:00,90.7,76.0,30.13,South,170,0.0,0.0,62,0.00,,,0.00,weatherlink.com 1.10,2013-07-09 18:11:00,
2013-07-09 13:26:00,91.2,76.0,30.12,SSE,155,0.0,0.0,61,0.00,,,0.00,weatherlink.com 1.10,2013-07-09 18:26:00,
2013-07-09 13:41:00,91.5,75.0,30.11,South,172,0.0,0.0,59,0.00,,,0.00,weatherlink.com 1.10,2013-07-09 18:41:00,
2013-07-09 13:56:00,92.5,74.0,30.11,WSW,250,0.0,0.0,55,0.00,,,0.00,weatherlink.com 1.10,2013-07-09 18:56:00,
2013-07-09 14:11:00,93.5,75.0,30.11,South,172,0.0,0.0,55,0.00,,,0.00,weatherlink.com 1.10,2013-07-09 19:11:00,
2013-07-09 14:26:00,93.6,74.0,30.11,SSE,158,0.0,0.0,53,0.00,,,0.00,weatherlink.com 1.10,2013-07-09 19:26:00,
2013-07-09 14:41:00,94.6,73.0,30.10,SSW,192,0.0,0.0,49,0.00,,,0.00,weatherlink.com 1.10,2013-07-09 19:41:00,
2013-07-09 14:56:00,95.5,73.0,30.10,SSW,201,0.0,0.0,48,0.00,,,0.00,weatherlink.com 1.10,2013-07-09 19:56:00,
2013-07-09 15:11:00,96.1,72.0,30.09,South,178,0.0,0.0,46,0.00,,,0.00,weatherlink.com 1.10,2013-07-09 20:11:00,
2013-07-09 15:26:00,95.7,74.0,30.09,SW,230,0.0,0.0,50,0.00,,,0.00,weatherlink.com 1.10,2013-07-09 20:26:00,
2013-07-09 15:42:00,95.4,73.0,30.08,South,179,0.0,0.0,48,0.00,,,0.00,weatherlink.com 1.10,2013-07-09 20:42:00,
2013-07-09 15:57:00,96.1,73.0,30.07,SSE,163,0.0,0.0,47,0.00,,,0.00,weatherlink.com 1.10,2013-07-09 20:57:00,
2013-07-09 16:12:00,95.4,72.0,30.07,WSW,238,0.0,0.0,46,0.00,,,0.00,weatherlink.com 1.10,2013-07-09 21:12:00,
2013-07-09 16:27:00,96.3,70.0,30.06,ESE,113,0.0,0.0,43,0.00,,,0.00,weatherlink.com 1.10,2013-07-09 21:27:00,
2013-07-09 16:42:00,96.7,72.0,30.06,SW,216,0.0,0.0,45,0.00,,,0.00,weatherlink.com 1.10,2013-07-09 21:42:00,
2013-07-09 16:57:00,97.2,72.0,30.06,SW,236,0.0,0.0,44,0.00,,,0.00,weatherlink.com 1.10,2013-07-09 21:57:00,
2013-07-09 17:12:00,97.1,71.0,30.05,SSE,160,0.0,0.0,43,0.00,,,0.00,weatherlink.com 1.10,2013-07-09 22:12:00,
2013-07-09 17:27:00,96.7,71.0,30.04,SE,128,0.0,0.0,44,0.00,,,0.00,weatherlink.com 1.10,2013-07-09 22:27:00,
2013-07-09 17:42:00,97.8,72.0,30.04,SE,130,0.0,0.0,44,0.00,,,0.00,weatherlink.com 1.10,2013-07-09 22:42:00,
2013-07-09 17:57:00,97.0,72.0,30.04,SE,142,0.0,0.0,44,0.00,,,0.00,weatherlink.com 1.10,2013-07-09 22:57:00,
2013-07-09 18:12:00,96.9,73.0,30.03,SE,143,0.0,0.0,47,0.00,,,0.00,weatherlink.com 1.10,2013-07-09 23:12:00,
2013-07-09 18:27:00,96.0,74.0,30.02,South,189,0.0,0.0,49,0.00,,,0.00,weatherlink.com 1.10,2013-07-09 23:27:00,
2013-07-09 18:42:00,95.8,75.0,30.02,South,189,0.0,0.0,52,0.00,,,0.00,weatherlink.com 1.10,2013-07-09 23:42:00,
2013-07-09 18:57:00,94.7,75.0,30.03,South,189,0.0,0.0,53,0.00,,,0.00,weatherlink.com 1.10,2013-07-09 23:57:00,
2013-07-09 19:12:00,93.8,76.0,30.03,SE,141,0.0,0.0,57,0.00,,,0.00,weatherlink.com 1.10,2013-07-10 00:12:00,
2013-07-09 19:27:00,92.4,75.0,30.03,SE,145,0.0,0.0,58,0.00,,,0.00,weatherlink.com 1.10,2013-07-10 00:27:00,
2013-07-09 19:42:00,90.4,76.0,30.02,SE,144,0.0,0.0,62,0.00,,,0.00,weatherlink.com 1.10,2013-07-10 00:42:00,
2013-07-09 19:57:00,89.1,76.0,30.02,SE,144,0.0,0.0,66,0.00,,,0.00,weatherlink.com 1.10,2013-07-10 00:57:00,
2013-07-09 20:12:00,87.7,75.0,30.02,SE,143,0.0,0.0,67,0.00,,,0.00,weatherlink.com 1.10,2013-07-10 01:12:00,
2013-07-09 20:27:00,86.2,75.0,30.03,SE,143,0.0,0.0,70,0.00,,,0.00,weatherlink.com 1.10,2013-07-10 01:27:00,
2013-07-09 20:42:00,84.7,76.0,30.02,ESE,120,0.0,0.0,74,0.00,,,0.00,weatherlink.com 1.10,2013-07-10 01:42:00,
2013-07-09 20:57:00,85.1,76.0,30.02,SE,128,0.0,0.0,74,0.00,,,0.00,weatherlink.com 1.10,2013-07-10 01:57:00,
2013-07-09 21:12:00,85.5,75.0,30.03,ENE,66,0.0,0.0,71,0.00,,,0.00,weatherlink.com 1.10,2013-07-10 02:12:00,
2013-07-09 21:27:00,85.3,75.0,30.03,SSE,154,0.0,0.0,72,0.00,,,0.00,weatherlink.com 1.10,2013-07-10 02:27:00,
2013-07-09 21:42:00,85.2,75.0,30.04,SW,217,0.0,0.0,72,0.00,,,0.00,weatherlink.com 1.10,2013-07-10 02:42:00,
2013-07-09 21:57:00,84.9,75.0,30.04,SSW,204,0.0,0.0,72,0.00,,,0.00,weatherlink.com 1.10,2013-07-10 02:57:00,
2013-07-09 22:12:00,84.4,75.0,30.04,NNW,345,0.0,0.0,73,0.00,,,0.00,weatherlink.com 1.10,2013-07-10 03:12:00,
2013-07-09 22:27:00,83.9,75.0,30.05,NW,313,0.0,0.0,74,0.00,,,0.00,weatherlink.com 1.10,2013-07-10 03:27:00,
2013-07-09 22:42:00,83.4,74.0,30.05,SW,215,0.0,0.0,74,0.00,,,0.00,weatherlink.com 1.10,2013-07-10 03:42:00,
2013-07-09 22:57:00,83.2,75.0,30.05,SW,215,0.0,0.0,75,0.00,,,0.00,weatherlink.com 1.10,2013-07-10 03:57:00,
2013-07-09 23:12:00,82.9,75.0,30.05,SSW,213,0.0,0.0,76,0.00,,,0.00,weatherlink.com 1.10,2013-07-10 04:12:00,
2013-07-09 23:27:00,82.6,75.0,30.06,South,182,0.0,0.0,77,0.00,,,0.00,weatherlink.com 1.10,2013-07-10 04:27:00,
2013-07-09 23:42:00,82.3,75.0,30.07,South,182,0.0,0.0,78,0.00,,,0.00,weatherlink.com 1.10,2013-07-10 04:42:00,
2013-07-09 23:57:00,82.0,75.0,30.07,East,101,0.0,0.0,79,0.00,,,0.00,weatherlink.com 1.10,2013-07-10 04:57:00,